Location: Newark
(35.2672°N, 80.7344°W)
Time: 09:50:26
(UTC+00:00)

Vanguard 3 - All Passes

Search period start: 27 January 2020 00:00
Search period end: 06 February 2020 00:00
Orbit: 507 x 3264 km, 33.4° (Epoch: 26 January)

Date Brightness Start Highest point End Pass type
(mag) Time Alt. Az. Time Alt. Az. Time Alt. Az.
27 Jan - 01:21:50 10° W 01:41:32 82° S 01:54:16 10° ESE visible
27 Jan - 03:40:19 10° W 03:56:06 54° SSW 04:05:22 10° SE visible
27 Jan - 06:00:54 10° W 06:07:13 16° SW 06:12:03 10° SSW night (unlit)
27 Jan - 19:37:11 10° SSW 19:51:50 37° SE 20:08:50 10° E daylight
27 Jan - 21:48:36 10° SW 22:07:23 69° SSE 22:25:32 10° E daylight
28 Jan - 00:04:17 10° W 00:24:38 84° S 00:39:45 10° E visible
28 Jan - 02:22:16 10° W 02:40:47 71° SSW 02:52:07 10° ESE visible
28 Jan - 04:41:17 10° W 04:53:40 33° SW 05:01:32 10° SSE visible
28 Jan - 18:25:18 10° S 18:36:25 24° SE 18:49:48 10° E daylight
28 Jan - 20:33:44 10° SW 20:50:28 56° SSE 21:09:12 10° E daylight
28 Jan - 22:47:29 10° WSW 23:07:16 81° S 23:24:37 10° E visible
29 Jan - 01:04:27 10° W 01:24:29 81° S 01:38:08 10° ESE visible
29 Jan - 03:22:50 10° W 03:39:15 51° SSW 03:49:16 10° SE visible
29 Jan - 05:44:22 10° W 05:50:26 15° SW 05:55:14 10° SSW visible
29 Jan - 17:18:26 10° SE 17:21:45 11° SE 17:25:18 10° ESE daylight
29 Jan - 19:20:07 10° SSW 19:34:17 41° SE 19:51:53 10° E daylight
29 Jan - 21:31:38 10° WSW 21:49:54 72° SSE 22:08:48 10° E daylight
29 Jan - 23:47:07 10° W 00:07:24 85° S 00:23:26 10° E visible
30 Jan - 02:04:47 10° W 02:23:48 68° SSW 02:36:00 10° ESE visible
30 Jan - 04:24:01 10° W 04:36:45 30° SW 04:45:12 10° SSE visible
30 Jan - 18:08:00 10° S 18:19:01 26° SE 18:33:02 10° E daylight
30 Jan - 20:16:52 10° SW 20:32:57 60° SSE 20:52:14 10° ENE daylight
30 Jan - 22:30:31 10° WSW 22:49:54 82° S 23:08:03 10° E daylight
31 Jan - 00:47:08 10° W 01:07:21 79° SSW 01:21:55 10° ESE visible
31 Jan - 03:05:21 10° WNW 03:22:14 48° SW 03:33:02 10° SE visible
31 Jan - 05:28:03 10° W 05:33:33 13° SW 05:38:06 10° SSW visible
31 Jan - 16:59:16 10° SSE 17:04:33 13° SE 17:10:33 10° ESE daylight
31 Jan - 19:03:15 10° SSW 19:16:49 44° SE 19:34:46 10° E daylight
31 Jan - 21:14:51 10° WSW 21:32:26 75° SSE 21:51:56 10° E daylight
31 Jan - 23:30:03 10° W 23:50:07 84° S 00:07:01 10° E visible
01 Feb - 01:47:21 10° W 02:06:40 65° SSW 02:19:45 10° SE visible
01 Feb - 04:06:48 10° W 04:19:44 28° SW 04:28:41 10° S visible
01 Feb - 17:50:59 10° S 18:01:40 29° SE 18:16:03 10° E daylight
01 Feb - 20:00:11 10° SW 20:15:30 63° SSE 20:35:07 10° E daylight
01 Feb - 22:13:43 10° W 22:32:31 84° S 22:51:22 10° E daylight
02 Feb - 00:29:54 10° W 00:50:06 77° SSW 01:05:34 10° ESE visible
02 Feb - 02:47:56 10° W 03:05:06 45° SW 03:16:39 10° SSE visible
02 Feb - 05:12:10 10° WSW 05:16:33 12° SW 05:20:24 10° SW visible
02 Feb - 16:41:18 10° SSE 16:47:22 15° SE 16:54:41 10° E daylight
02 Feb - 18:46:35 10° SSW 18:59:26 48° SE 19:17:31 10° ENE daylight
02 Feb - 20:58:14 10° WSW 21:15:01 78° SSE 21:34:58 10° E daylight
02 Feb - 23:13:06 10° W 23:32:47 83° S 23:50:30 10° ESE visible
03 Feb - 01:30:00 10° WNW 01:49:25 61° SSW 02:03:22 10° SE visible
03 Feb - 03:49:40 10° W 04:02:36 26° SW 04:11:59 10° S visible
03 Feb - 17:34:11 10° SSW 17:44:25 31° SE 17:58:54 10° E daylight
03 Feb - 19:43:41 10° SW 19:58:08 67° SSE 20:17:54 10° E daylight
03 Feb - 21:57:01 10° W 22:15:08 84° S 22:34:35 10° E daylight
04 Feb - 00:12:47 10° W 00:32:45 74° SSW 00:49:05 10° ESE visible
04 Feb - 02:30:36 10° W 02:47:49 42° SW 03:00:06 10° SSE visible
04 Feb - 04:57:34 10° WSW 04:59:30 10° WSW 05:01:21 10° SW visible
04 Feb - 16:23:55 10° SSE 16:30:16 16° SE 16:38:19 10° E daylight
04 Feb - 18:30:06 10° SW 18:42:10 51° SE 19:00:09 10° ENE daylight
04 Feb - 20:41:45 10° WSW 20:57:41 80° SSE 21:17:54 10° E daylight
04 Feb - 22:56:15 10° W 23:15:24 82° S 23:33:50 10° ESE visible
05 Feb - 01:12:45 10° WNW 01:32:03 58° SSW 01:46:50 10° SE visible
05 Feb - 03:32:41 10° W 03:45:21 24° SW 03:55:03 10° S visible
05 Feb - 17:17:37 10° SSW 17:27:15 34° SE 17:41:39 10° E daylight
05 Feb - 19:27:20 10° WSW 19:40:53 70° SSE 20:00:35 10° E daylight
05 Feb - 21:40:27 10° W 21:57:47 85° S 22:17:41 10° E daylight
